Location: PSU-Greenbush Astrophysical Observatory
(37.5140°N, 94.9880°W)
Time: 09:48:44
(UTC-06:00)

Transit 2A - Pass Details

Date: 31 January 2020
Orbit: 600 x 959 km, 66.7° (Epoch: 16 February)

Event Time Altitude Azimuth Distance (km) Brightness Sun altitude
Rises 05:35:44 0° 304° (NW) 3,127 - -21.8°
Reaches altitude 10° 05:40:26 10° 264° (W) 2,309 - -20.8°
Maximum altitude 05:41:14 10° 255° (WSW) 2,303 - -20.7°
Drops below altitude 10° 05:42:02 10° 246° (WSW) 2,344 - -20.5°
Exits shadow 05:46:25 - 211° (SSW) 3,188 9.0 -19.7°
Sets 05:47:07 0° 207° (SSW) 3,384 9.1 -19.5°
